Location: Sternwarte Stuttgart
(48.7670°N, 9.1830°E)
Time: 20:29:19
(UTC+02:00)

Daily predictions for brighter satellites

Satellite Brightness Start Highest point End
(mag) Time Altitude Azimuth Time Altitude Azimuth Time Altitude Azimuth
SL-08 RB Rocket 4.0 21:03:31 10° S 21:08:09 76° WSW 21:12:51 10° NNW
Cosmos 1980 Rocket 2.3 21:03:34 10° NNW 21:09:16 71° ENE 21:14:54 10° SE
Meteor 1-4 Rocket 2.9 21:06:41 10° N 21:10:00 42° ENE 21:13:18 10° SSE
Resurs 1-3 3.9 21:06:45 10° SSE 21:11:00 52° ENE 21:15:17 10° N
H-2A R/B 3.3 21:06:12 10° S 21:11:02 43° W 21:15:47 10° NNW
Cosmos 389 Rocket 3.4 21:10:19 10° NNW 21:13:41 50° W 21:17:04 10° S
Cosmos 2123 Rocket 4.3 21:10:06 10° N 21:16:12 53° ENE 21:22:18 10° SSE
Cosmos 2239 Rocket 4.5 21:13:03 10° S 21:19:06 66° E 21:25:14 10° NNE
Cosmos 1833 Rocket 2.8 21:14:27 10° SSW 21:20:05 83° WNW 21:25:46 10° NNE
Cosmos 1633 Rocket 3.4 21:17:21 10° SSE 21:21:34 46° E 21:25:48 10° NNE
Cosmos 1697 Rocket 3.4 21:16:34 10° NW 21:22:03 55° WSW 21:27:30 10° S
Cosmos 676 Rocket 4.3 21:16:57 10° S 21:22:03 48° ESE 21:27:10 10° NNE
Intercosmos 25 3.2 21:20:15 10° NNW 21:24:11 81° W 21:27:21 10° S
BREEZE-M DEB (TANK) 2.0 21:24:42 10° WSW 21:27:06 81° SSE 21:32:17 10° ENE
Cosmos 921 Rocket 3.3 21:24:48 10° N 21:28:54 49° ENE 21:32:57 10° SE
ATLAS 3B R/B 4.1 21:27:24 10° SE 21:30:12 13° ESE 21:33:01 10° ENE
Cosmos 405 Rocket 4.0 21:28:59 10° SE 21:31:53 22° E 21:34:49 10° NE
SJ-6B 3.8 21:28:18 10° S 21:32:12 50° W 21:36:03 10° NNW
Cosmos 1812 4.0 21:30:17 10° NNW 21:33:57 43° W 21:37:36 10° SSW
USA 234 4.0 21:27:51 10° E 21:34:05 50° NNE 21:40:21 10° WNW
Cosmos 1707 Rocket 3.8 21:31:57 10° NNW 21:36:17 71° W 21:40:34 10° S
SPOT 3 Rocket 3.6 21:32:53 10° SSE 21:38:06 90° ENE 21:43:20 10° NNW
Cosmos 1437 Rocket 4.2 21:35:35 10° NNE 21:38:35 22° ENE 21:40:56 13° ESE
Cosmos 2333 Rocket 4.4 21:36:41 10° N 21:39:51 15° NNE 21:43:00 10° ENE
Cosmos 1867 3.6 21:34:57 10° SSW 21:40:23 84° SE 21:45:53 10° NE
DMSP B5D2-2 4.2 21:36:10 10° NNE 21:41:25 83° WNW 21:46:41 10° SSW
Cosmos 2242 Rocket 4.3 21:39:17 10° N 21:43:23 35° ENE 21:46:41 14° SE
Terra 3.7 21:44:35 10° E 21:47:36 17° ENE 21:50:38 10° NNE
USA 186 4.3 21:47:05 10° WSW 21:47:48 11° W 21:48:30 10° WNW
Cosmos 1238 Rocket 2.9 21:47:58 16° SSE 21:49:51 31° E 21:52:35 10° NNE
Lacrosse 5 1.9 21:44:54 10° NW 21:50:00 89° NNE 21:54:06 16° SE
USA 276 2.1 21:46:53 10° WNW 21:50:05 84° N 21:52:28 17° E
Cosmos 1470 Rocket 3.7 21:46:05 10° S 21:50:20 51° E 21:54:35 10° NNE
Cosmos 1954 Rocket 4.0 21:45:35 10° SSW 21:50:54 79° ESE 21:56:15 10° NNE
USA 238 DEB 3.6 21:44:45 10° SSW 21:51:18 68° SE 21:58:09 10° NE
USA 238 3.6 21:44:51 10° SSW 21:51:24 67° SE 21:58:15 10° NE
X-37B 1.3 21:49:35 10° WSW 21:52:32 38° S 21:54:17 20° SE
Spot 2 Rocket 3.9 21:48:19 14° SE 21:52:34 47° ENE 21:57:26 10° N
Sich 1 4.2 21:49:41 10° SSW 21:53:59 48° WNW 21:58:18 10° N
Meteor 2-20 Rocket 4.5 21:50:47 10° N 21:57:00 89° E 22:03:09 10° S
CENTAUR R/B 2.7 21:52:48 10° SSW 21:58:26 48° ESE 22:05:04 10° NE
Okean 1 3.7 21:54:30 10° N 21:58:26 46° ENE 22:01:08 18° SE
Cosmos 44 3.8 21:55:56 10° NNW 22:00:42 52° NE 22:04:22 18° ESE
CZ-2C R/B 3.8 21:57:27 10° NNE 22:02:03 80° WNW 22:06:33 10° SSW
Cosmos 1862 Rocket 3.7 21:59:27 10° NNW 22:03:55 75° W 22:08:18 10° S
MetOp-B 4.1 22:01:46 13° SSE 22:06:38 81° ENE 22:12:01 10° NNW
Cosmos 1763 Rocket 3.6 22:03:39 10° NNW 22:09:00 72° ENE 22:12:49 19° SSE
SL-4 R/B 2.3 22:06:01 10° W 22:09:58 59° N 22:13:38 10° ENE
Meteor 2-4 Rocket 4.3 22:04:55 10° N 22:10:11 39° ENE 22:13:25 20° SE
BREEZE-M DEB (TANK) 1.5 22:08:49 10° W 22:11:27 80° N 22:12:11 33° E
CZ-2C R/B 3.8 22:07:24 10° N 22:12:19 45° WNW 22:17:15 10° SW
FALCON 9 DEB 4.1 22:09:54 10° W 22:13:18 49° NNW 22:16:44 10° ENE
Cosmos 1934 Rocket 4.3 22:07:44 10° SSW 22:14:05 73° W 22:20:29 10° N
Cosmos 2219 Rocket 4.1 22:10:32 10° N 22:14:34 19° NE 22:18:35 10° E
OBJECT-B 3.0 22:13:09 10° SSW 22:15:54 24° W 22:18:38 10° NW
Resurs 01 Rocket 2.3 22:11:38 10° S 22:15:58 54° W 22:20:21 10° NNW
SL-16 R/B 2.2 22:10:50 10° NNW 22:16:32 73° ENE 22:20:20 22° SE
GP-B 3.2 22:18:07 10° N 22:22:34 80° W 22:26:45 12° S
Meteor 1-14 Rocket 4.4 22:18:22 12° S 22:23:41 59° E 22:29:32 10° NNE
Cosmos 1184 Rocket 4.2 22:21:54 10° SW 22:25:00 39° WNW 22:28:09 10° N
IGS 5A 3.4 22:22:43 22° SSE 22:25:23 89° WSW 22:29:35 10° NNW
CARTOSAT-1 4.0 22:23:43 26° SE 22:25:45 47° ENE 22:29:55 10° N
Cosmos 2082 Rocket 3.3 22:21:07 10° SW 22:26:36 47° NW 22:32:05 10° NNE
Cosmos 1933 Rocket 3.5 22:26:39 11° S 22:30:58 88° WNW 22:35:26 10° N
SPOT 5 3.1 22:29:09 28° SE 22:31:02 46° ENE 22:35:17 10° N
Meteor 1-25 Rocket 4.4 22:28:37 10° SSW 22:34:11 74° WNW 22:39:52 10° N
Cosmos 2322 Rocket 2.2 22:28:51 10° NNW 22:34:36 81° ENE 22:37:51 27° SSE
Meteor 1-18 Rocket 4.2 22:29:19 10° NNW 22:34:55 80° W 22:38:56 19° S
Landsat 7 3.9 22:32:02 20° S 22:35:18 76° WSW 22:40:05 10° NNW
USA 267 3.3 22:34:09 10° ENE 22:40:36 56° SE 22:47:00 10° SW
NOSS 3-2 (A) 3.9 22:36:24 10° SW 22:42:10 65° NW 22:48:53 10° NE
Cosmos 1869 Rocket 3.8 22:40:50 33° SSE 22:42:25 50° E 22:46:46 10° NNE
Cosmos 1500 3.4 22:42:45 42° ESE 22:43:19 46° E 22:46:57 10° NNE
SL-27 R/B 2.1 22:42:22 39° S 22:43:27 76° ESE 22:46:47 10° NNE
Cosmos 2360 Rocket 2.5 22:38:52 10° NNW 22:44:29 56° ENE 22:47:12 29° ESE
Cosmos 540 Rocket 3.4 22:39:36 10° NNW 22:44:48 74° ENE 22:47:11 33° SE
SAR-Lupe-2 4.0 22:41:26 10° NNE 22:44:51 41° E 22:44:58 41° ESE
Cosmos 2237 4.4 22:39:30 10° NNW 22:45:12 62° ENE 22:47:57 30° SE
Cosmos 1242 Rocket 4.3 22:43:51 10° NNE 22:46:31 19° ENE 22:46:44 19° ENE
Okean 1-7 3.0 22:42:37 10° NNW 22:46:58 82° W 22:48:55 32° S
NOSS 3-2 (C) 3.5 22:46:17 10° SW 22:52:04 82° NW 22:58:47 10° NE
Cosmos 1703 Rocket 3.8 22:48:20 10° NNW 22:52:39 64° W 22:54:48 28° S
Cosmos 1980 Rocket 4.2 22:48:34 10° NW 22:52:41 21° W 22:56:46 10° SSW
Cosmos 1666 3.9 22:54:47 27° ENE 22:54:47 27° ENE 22:57:33 10° NNE
SPOT 1/Viking Rocket 3.9 22:54:37 23° S 22:57:47 62° WSW 23:03:00 10° NNW
ERS-1 Rocket 2.9 22:56:13 33° SSE 22:58:34 85° WSW 23:03:37 10° NNW
Cosmos 1850 Rocket 4.3 22:55:38 10° SSW 23:00:54 69° WNW 23:06:11 10° NNE
Cosmos 2084 Rocket 3.7 23:02:24 10° SW 23:06:35 66° NW 23:10:54 10° NE
Cosmos 841 Rocket 3.6 23:01:23 10° NNW 23:06:38 73° WSW 23:08:44 37° S
COSMOS 2428 3.8 23:02:00 10° NNW 23:07:12 34° NE 23:09:49 23° E
Cosmos 405 Rocket 4.5 23:04:25 10° SW 23:07:42 30° WNW 23:11:05 10° N
Tsikada Rocket 4.5 23:02:44 10° N 23:08:50 47° ENE 23:11:05 34° ESE
Cosmos 1733 Rocket 3.8 23:13:36 35° E 23:13:36 35° E 23:17:32 10° NNE
Cosmos 2237 Rocket 4.2 23:09:58 10° N 23:14:01 19° NE 23:17:36 11° E
Cosmos 1437 Rocket 4.1 23:11:31 10° NNW 23:14:54 32° W 23:16:19 24° SW
Cosmos 2100 Rocket 3.9 23:11:13 26° S 23:14:56 90° E 23:21:08 10° N
COSMOS 2487 4.3 23:17:15 21° NE 23:17:15 21° NE 23:18:41 10° NE
USA 234 3.2 23:13:34 33° SE 23:16:51 87° SW 23:23:27 10° NW
ATLAS 3B R/B 2.5 23:13:10 10° SSW 23:19:36 65° ESE 23:26:11 10° NE
Cosmos 2173 Rocket 3.9 23:17:06 27° S 23:20:37 88° W 23:26:46 10° N
Cosmos 1271 Rocket 4.3 23:19:29 10° NNE 23:22:25 24° ENE 23:22:25 24° ENE
Iridium 4 Rocket 2.8 23:21:59 62° S 23:22:41 87° E 23:26:51 10° N
Terra 1.8 23:23:28 48° S 23:24:46 76° WSW 23:29:34 10° NNW
Cosmos 2333 Rocket 2.7 23:19:56 10° NNW 23:25:34 51° NE 23:27:31 36° ESE
USA 276 4.2 23:23:23 10° W 23:24:49 21° WSW 23:24:49 21° WSW
X-37B 3.5 23:26:28 10° WSW 23:26:32 10° WSW 23:26:32 10° WSW
Cosmos 1725 Rocket 4.0 23:30:01 42° SSE 23:32:09 67° E 23:38:25 10° NNE
Cosmos 1814 Rocket 4.4 23:27:12 10° NNW 23:32:18 55° WSW 23:33:52 40° SSW
Lacrosse 5 3.4 23:28:36 10° WNW 23:32:25 22° SW 23:33:17 21° SW
Lacrosse 4 Rocket 2.0 23:33:51 43° ENE 23:33:51 43° ENE 23:36:59 10° NE
Cosmos 1066 Rocket 4.2 23:27:39 10° N 23:33:19 66° ENE 23:34:39 50° SE
Meteor 1-5 Rocket 4.4 23:30:26 28° SSW 23:33:41 77° WNW 23:39:37 10° N
Cosmos 1459 Rocket 4.2 23:30:59 25° SSW 23:34:48 72° W 23:41:12 10° N
SL-08 R/B 4.4 23:34:29 45° SSE 23:36:26 73° E 23:42:32 10° NNE
Meteor 1-11 Rocket 3.6 23:37:11 45° S 23:39:02 84° E 23:44:53 10° NNE
Cosmos 2016 Rocket 4.0 23:37:52 38° S 23:40:33 89° E 23:46:59 10° N
Cosmos 2346 Rocket 4.4 23:35:14 10° NNW 23:41:18 79° W 23:43:21 44° S
Cosmos 2221 Rocket 3.8 23:38:27 10° NNW 23:42:55 65° W 23:43:34 57° SW
Cosmos 1378 Rocket 3.8 23:44:44 10° N 23:49:05 56° ENE 23:49:05 56° ENE
CENTAUR R/B 3.5 23:43:07 10° WSW 23:49:09 49° NW 23:56:19 10° NE
SL-4 R/B 2.3 23:46:05 10° WNW 23:49:28 57° NNW 23:49:28 57° NNW
FALCON 9 DEB 4.3 23:47:24 10° WNW 23:50:46 42° N 23:50:49 42° N
